Weather History for Del Rio Laughlin AFB, TX

Change the Weather History Date:

Friday, March 28, 2014

  Actual Average Record
Temperature  
Mean Temperature 76 °F -  
Max Temperature 91 °F 79 °F 93 °F (1997)
Min Temperature 60 °F 56 °F 36 °F (2009)
Cooling Degree Days 10    
Growing Degree Days 26 (Base 50)    
Moisture  
Dew Point 48 °F    
Average Humidity 60    
Maximum Humidity 100    
Minimum Humidity 10    
Precipitation  
Precipitation 0.00 in - - ()
Sea Level Pressure  
Sea Level Pressure 29.81 in    
Wind  
Wind Speed 9 mph (WNW)    
Max Wind Speed 25 mph    
Max Gust Speed 36 mph    
Visibility 7 miles    
Events Fog    
Averages and records for this station are not official NWS values.
T = Trace of Precipitation, MM = Missing Value Source: NWS Daily Summary

Daily Weather History Graph

Daily Weather History Graph

Search for Another Location

Airport:

Trip Planner

Search our weather history database for the weather conditions in past years. The results will help you decide how hot, cold, wet, or windy it might be!

Date:

Astronomy

Mar. 28, 2014 Rise Set
Actual Time 7:37 AM CDT 7:59 PM CDT
Civil Twilight 7:13 AM CDT 8:23 PM CDT
Nautical Twilight 6:45 AM CDT 8:50 PM CDT
Astronomical Twilight 6:17 AM CDT 9:19 PM CDT
Moon 5:59 AM CDT (3/28) 6:05 PM CDT (3/28)
Length of Visible Light 13h 09m
Length of Day
12h 21m
Waning Crescent, 6% of the Moon is Illuminated
Mar 28
Waning Crescent
Mar 30
New
Apr 7
First Quarter
Apr 15
Full
Apr 22
Last Quarter

Hourly Weather History & Observations

Time (CDT) Temp. Dew Point Humidity Pressure Visibility Wind Dir Wind Speed Gust Speed Precip Events Conditions
12:58 AM 65.1 °F 58.5 °F 79% 29.73 in 10.0 mi ESE 6.9 mph - N/A   Clear
1:58 AM 64.9 °F 60.6 °F 86% 29.72 in 10.0 mi ESE 5.8 mph - N/A   Clear
2:58 AM 63.7 °F 61.0 °F 91% 29.71 in 10.0 mi East 10.4 mph - N/A   Clear
3:58 AM - - N/A% - - North - - N/A   Unknown
4:58 AM - - N/A% - - North - - N/A   Unknown
5:58 AM 63.9 °F 63.5 °F 99% 29.70 in 8.0 mi East 9.2 mph - N/A   Clear
6:58 AM 63.3 °F 63.0 °F 99% 29.73 in 5.0 mi Calm Calm - N/A   Clear
7:13 AM 62.6 °F 62.6 °F 100% 29.77 in 0.8 mi Calm Calm - N/A   Clear
7:18 AM 62.6 °F 62.6 °F 100% 29.77 in 0.5 mi Calm Calm - N/A Fog Fog
7:23 AM 62.6 °F 62.6 °F 100% 29.78 in 0.8 mi Variable 1.2 mph - N/A   Clear
7:28 AM 60.8 °F 60.8 °F 100% 29.78 in 0.5 mi NW 2.3 mph - N/A Fog Fog
7:33 AM 60.8 °F 60.8 °F 100% 29.79 in 0.5 mi NW 6.9 mph - N/A Fog Fog
7:37 AM 62.6 °F 60.8 °F 94% 29.78 in 1.0 mi West 9.2 mph - N/A   Scattered Clouds
7:42 AM 62.6 °F 62.6 °F 100% 29.79 in 3.0 mi West 6.9 mph - N/A   Mostly Cloudy
7:47 AM 64.4 °F 64.4 °F 100% 29.80 in 6.0 mi West 8.1 mph - N/A   Mostly Cloudy
7:52 AM 64.4 °F 64.4 °F 100% 29.80 in 6.0 mi WNW 10.4 mph - N/A   Mostly Cloudy
7:58 AM 63.5 °F 63.5 °F 100% 29.77 in 6.0 mi WNW 8.1 mph - N/A   Overcast
8:03 AM 64.4 °F 64.4 °F 100% 29.80 in 6.0 mi NW 8.1 mph - N/A   Overcast
8:58 AM 65.5 °F 65.5 °F 100% 29.80 in 8.0 mi WNW 8.1 mph - N/A   Scattered Clouds
9:58 AM 69.4 °F 65.1 °F 86% 29.87 in 10.0 mi West 9.2 mph - N/A   Partly Cloudy
10:58 AM 75.4 °F 61.3 °F 62% 29.85 in 10.0 mi WNW 15.0 mph - N/A   Clear
11:58 AM 82.4 °F 45.9 °F 28% 29.86 in 10.0 mi WNW 24.2 mph 29.9 mph N/A   Clear
12:58 PM 87.3 °F 35.4 °F 16% 29.85 in 10.0 mi WNW 25.3 mph 29.9 mph N/A   Clear
1:58 PM 89.4 °F 29.3 °F 12% 29.83 in 10.0 mi WNW 23.0 mph 34.5 mph N/A   Clear
2:58 PM 89.4 °F 31.1 °F 12% 29.81 in 10.0 mi WNW 23.0 mph 35.7 mph N/A   Clear
3:58 PM 90.0 °F 29.5 °F 11% 29.83 in 10.0 mi NW 21.9 mph 29.9 mph N/A   Clear
4:48 PM 91.4 °F 28.4 °F 10% 29.82 in 10.0 mi West 18.4 mph 28.8 mph N/A   Clear
4:58 PM 90.3 °F 27.3 °F 10% 29.81 in 10.0 mi West 20.7 mph 25.3 mph N/A   Clear
5:04 PM 89.6 °F 26.6 °F 10% 29.82 in 10.0 mi WNW 17.3 mph 25.3 mph N/A   Clear
5:58 PM 90.0 °F 27.0 °F 10% 29.78 in 10.0 mi WNW 18.4 mph 27.6 mph N/A   Clear
6:58 PM 88.9 °F 26.2 °F 10% 29.80 in 10.0 mi West 18.4 mph 25.3 mph N/A   Clear
7:58 PM 84.6 °F 27.9 °F 13% 29.84 in 10.0 mi NW 13.8 mph - N/A   Clear
8:58 PM 77.9 °F 30.0 °F 17% 29.87 in 10.0 mi NNW 9.2 mph - N/A   Clear
9:58 PM 72.7 °F 29.8 °F 21% 29.91 in 10.0 mi North 9.2 mph - N/A   Clear
10:58 PM 68.9 °F 30.2 °F 24% 29.94 in 10.0 mi North 4.6 mph - N/A   Clear
11:58 PM 68.9 °F 30.4 °F 24% 29.95 in 10.0 mi North 4.6 mph - N/A   Clear